| time (UTC) | temp F | wind direction | speed MPH | gust MPH | rain 1hr in | rain 24hr in | rain mn in | humidity % | barometer mb |
| 20260504050004 | 48 | 286 | 3.0 | 4.0 | 0.00 | 0.00 | 0.00 | 63 | 1005.4 |
| 20260504045403 | 48 | 265 | 4.0 | 8.0 | 0.00 | 0.00 | 0.00 | 60 | 1005.6 |
| 20260504044503 | 48 | 267 | 4.0 | 7.0 | 0.00 | 0.00 | 0.00 | 59 | 1005.5 |
| 20260504043603 | 47 | 278 | 1.0 | 4.0 | 0.00 | 0.00 | 0.00 | 60 | 1005.5 |
| 20260504042703 | 47 | 265 | 5.0 | 7.0 | 0.00 | 0.00 | 0.00 | 59 | 1005.7 |
| 20260504041803 | 47 | 261 | 7.0 | 10.0 | 0.00 | 0.00 | 0.00 | 57 | 1005.6 |
| 20260504040904 | 47 | 273 | 4.0 | 6.0 | 0.00 | 0.00 | 0.00 | 57 | 1005.6 |
| 20260504040004 | 46 | 268 | 4.0 | 8.0 | 0.00 | 0.00 | 0.00 | 57 | 1005.5 |
| 20260504035403 | 47 | 253 | 5.0 | 8.0 | 0.00 | 0.00 | 0.00 | 56 | 1005.5 |
| 20260504034503 | 47 | 257 | 7.0 | 9.0 | 0.00 | 0.00 | 0.00 | 54 | 1005.4 |
| 20260504033603 | 47 | 263 | 5.0 | 7.0 | 0.00 | 0.00 | 0.00 | 53 | 1005.4 |
| 20260504032703 | 46 | 269 | 4.0 | 6.0 | 0.00 | 0.00 | 0.00 | 55 | 1005.6 |
| 20260504031824 | 47 | 272 | 5.0 | 7.0 | 0.00 | 0.00 | 0.00 | 55 | 1005.5 |
| 20260504030903 | 47 | 253 | 4.0 | 9.0 | 0.00 | 0.00 | 0.00 | 54 | 1005.7 |
| 20260504030004 | 47 | 259 | 3.0 | 6.0 | 0.00 | 0.00 | 0.00 | 54 | 1005.7 |
| 20260504025403 | 47 | 264 | 4.0 | 6.0 | 0.00 | 0.00 | 0.00 | 53 | 1005.7 |
| 20260504024503 | 47 | 260 | 3.0 | 6.0 | 0.00 | 0.00 | 0.00 | 54 | 1005.6 |
| 20260504023603 | 48 | 258 | 6.0 | 7.0 | 0.00 | 0.00 | 0.00 | 52 | 1005.7 |
| 20260504022703 | 48 | 237 | 3.0 | 4.0 | 0.00 | 0.00 | 0.00 | 51 | 1005.9 |
| 20260504021803 | 48 | 256 | 2.0 | 3.0 | 0.00 | 0.00 | 0.00 | 51 | 1006.0 |
| 20260504020903 | 48 | 257 | 2.0 | 3.0 | 0.00 | 0.00 | 0.00 | 53 | 1006.0 |
| 20260504020025 | 48 | 275 | 2.0 | 4.0 | 0.00 | 0.00 | 0.00 | 53 | 1006.0 |
| 20260504015404 | 48 | 256 | 4.0 | 4.0 | 0.00 | 0.00 | 0.00 | 52 | 1006.0 |
| 20260504014503 | 49 | 264 | 4.0 | 6.0 | 0.00 | 0.00 | 0.00 | 51 | 1006.2 |
| 20260504013603 | 49 | 268 | 3.0 | 6.0 | 0.00 | 0.00 | 0.00 | 51 | 1006.4 |
| 20260504012724 | 49 | 250 | 2.0 | 4.0 | 0.00 | 0.00 | 0.00 | 48 | 1006.1 |
| 20260504011803 | 49 | 279 | 4.0 | 6.0 | 0.00 | 0.00 | 0.00 | 48 | 1006.2 |
| 20260504010903 | 50 | 270 | 6.0 | 10.0 | 0.00 | 0.00 | 0.00 | 45 | 1006.3 |
| 20260504010003 | 50 | 260 | 2.0 | 3.0 | 0.00 | 0.00 | 0.00 | 46 | 1006.2 |
| 20260504005403 | 50 | 254 | 4.0 | 9.0 | 0.00 | 0.00 | 0.00 | 45 | 1006.2 |
| 20260504004503 | 50 | 240 | 3.0 | 8.0 | 0.00 | 0.00 | 0.00 | 46 | 1006.1 |
| 20260504003603 | 49 | 315 | 4.0 | 6.0 | 0.00 | 0.00 | 0.00 | 47 | 1006.1 |
| 20260504002706 | 50 | 260 | 2.0 | 3.0 | 0.00 | 0.00 | 0.00 | 45 | 1006.1 |
| 20260504001803 | 51 | 259 | 3.0 | 4.0 | 0.00 | 0.00 | 0.00 | 44 | 1006.2 |
| 20260504000903 | 51 | 256 | 2.0 | 2.0 | 0.00 | 0.00 | 0.00 | 43 | 1005.9 |
| 20260504000003 | 52 | 252 | 2.0 | 3.0 | 0.00 | 0.00 | 0.00 | 42 | 1006.1 |
| 20260503235403 | 52 | 270 | 2.0 | 2.0 | 0.00 | 0.00 | 0.00 | 42 | 1005.9 |
| 20260503234503 | 52 | 259 | 5.0 | 7.0 | 0.00 | 0.00 | 0.00 | 41 | 1006.0 |
| 20260503233603 | 52 | 256 | 4.0 | 4.0 | 0.00 | 0.00 | 0.00 | 41 | 1006.0 |
| 20260503232703 | 53 | 257 | 4.0 | 6.0 | 0.00 | 0.00 | 0.00 | 40 | 1006.0 |
| 20260503231824 | 53 | 278 | 4.0 | 7.0 | 0.00 | 0.00 | 0.00 | 39 | 1006.0 |
| 20260503230903 | 53 | 255 | 2.0 | 4.0 | 0.00 | 0.00 | 0.00 | 39 | 1006.0 |
| 20260503230003 | 54 | 242 | 4.0 | 4.0 | 0.00 | 0.00 | 0.00 | 38 | 1006.0 |
| 20260503225423 | 54 | 251 | 2.0 | 4.0 | 0.00 | 0.00 | 0.00 | 34 | 1006.0 |
| 20260503224502 | 55 | 267 | 5.0 | 7.0 | 0.00 | 0.00 | 0.00 | 33 | 1006.0 |
| 20260503223602 | 54 | 268 | 3.0 | 4.0 | 0.00 | 0.00 | 0.00 | 33 | 1006.0 |
| 20260503222702 | 55 | 272 | 1.0 | 7.0 | 0.00 | 0.00 | 0.00 | 33 | 1005.9 |
| 20260503221802 | 56 | 286 | 3.0 | 4.0 | 0.00 | 0.00 | 0.00 | 32 | 1005.8 |
| 20260503220923 | 56 | 260 | 3.0 | 6.0 | 0.00 | 0.00 | 0.00 | 32 | 1005.9 |
| 20260503220023 | 55 | 309 | 2.0 | 3.0 | 0.00 | 0.00 | 0.00 | 32 | 1006.0 |
| 20260503215402 | 55 | 280 | 2.0 | 7.0 | 0.00 | 0.00 | 0.00 | 33 | 1006.1 |
| 20260503214503 | 55 | 288 | 2.0 | 3.0 | 0.00 | 0.00 | 0.00 | 32 | 1006.2 |
| 20260503213602 | 56 | 303 | 3.0 | 4.0 | 0.00 | 0.00 | 0.00 | 30 | 1006.2 |
| 20260503212702 | 57 | 265 | 6.0 | 11.0 | 0.00 | 0.00 | 0.00 | 31 | 1006.0 |
| 20260503211802 | 56 | 288 | 4.0 | 8.0 | 0.00 | 0.00 | 0.00 | 32 | 1006.0 |
| 20260503210902 | 54 | 296 | 1.0 | 2.0 | 0.00 | 0.00 | 0.00 | 33 | 1006.1 |
| 20260503210002 | 56 | 290 | 6.0 | 9.0 | 0.00 | 0.00 | 0.00 | 33 | 1006.3 |
| 20260503205423 | 57 | 313 | 3.0 | 6.0 | 0.00 | 0.00 | 0.00 | 32 | 1005.9 |
| 20260503204503 | 55 | 316 | 2.0 | 2.0 | 0.00 | 0.00 | 0.00 | 33 | 1006.1 |
| 20260503203602 | 55 | 311 | 4.0 | 11.0 | 0.00 | 0.00 | 0.00 | 33 | 1005.9 |
| 20260503202702 | 55 | 296 | 3.0 | 6.0 | 0.00 | 0.00 | 0.00 | 32 | 1006.2 |
| 20260503201802 | 54 | 324 | 3.0 | 4.0 | 0.00 | 0.00 | 0.00 | 33 | 1006.4 |
| 20260503200902 | 55 | 299 | 2.0 | 7.0 | 0.00 | 0.00 | 0.00 | 34 | 1006.3 |
| 20260503200002 | 56 | 290 | 3.0 | 8.0 | 0.00 | 0.00 | 0.00 | 33 | 1006.5 |
| 20260503195424 | 55 | 282 | 5.0 | 10.0 | 0.00 | 0.00 | 0.00 | 32 | 1006.5 |
| 20260503194502 | 54 | 291 | 6.0 | 10.0 | 0.00 | 0.00 | 0.00 | 34 | 1006.5 |
| 20260503193602 | 54 | 318 | 3.0 | 6.0 | 0.00 | 0.00 | 0.00 | 35 | 1007.0 |
| 20260503192703 | 53 | 282 | 2.0 | 2.0 | 0.00 | 0.00 | 0.00 | 36 | 1007.0 |
| 20260503191802 | 54 | 298 | 2.0 | 3.0 | 0.00 | 0.00 | 0.00 | 35 | 1006.9 |
| 20260503190903 | 54 | 314 | 2.0 | 2.0 | 0.00 | 0.00 | 0.00 | 36 | 1007.1 |
| 20260503190002 | 53 | 312 | 4.0 | 6.0 | 0.00 | 0.00 | 0.00 | 36 | 1007.1 |
| 20260503185402 | 54 | 304 | 4.0 | 4.0 | 0.00 | 0.00 | 0.00 | 35 | 1007.3 |
| 20260503184502 | 53 | 301 | 2.0 | 3.0 | 0.00 | 0.00 | 0.00 | 36 | 1007.2 |
| 20260503183602 | 53 | 279 | 2.0 | 3.0 | 0.00 | 0.00 | 0.00 | 39 | 1007.5 |
| 20260503182702 | 55 | 291 | 2.0 | 6.0 | 0.00 | 0.00 | 0.00 | 38 | 1007.5 |
| 20260503181802 | 52 | 312 | 3.0 | 4.0 | 0.00 | 0.00 | 0.00 | 39 | 1007.5 |
| 20260503180902 | 52 | 314 | 2.0 | 4.0 | 0.00 | 0.00 | 0.00 | 39 | 1007.7 |
| 20260503180002 | 52 | 305 | 0.0 | 2.0 | 0.00 | 0.00 | 0.00 | 41 | 1007.9 |
| 20260503175423 | 52 | 288 | 2.0 | 3.0 | 0.00 | 0.00 | 0.00 | 41 | 1007.8 |
| 20260503174502 | 52 | 334 | 1.0 | 2.0 | 0.00 | 0.00 | 0.00 | 42 | 1008.0 |
| 20260503173603 | 50 | 296 | 1.0 | 6.0 | 0.00 | 0.00 | 0.00 | 43 | 1008.1 |
| 20260503172702 | 50 | 314 | 1.0 | 3.0 | 0.00 | 0.00 | 0.00 | 43 | 1008.1 |
| 20260503171823 | 51 | 335 | 3.0 | 4.0 | 0.00 | 0.00 | 0.00 | 40 | 1008.2 |
| 20260503170902 | 54 | 295 | 4.0 | 6.0 | 0.00 | 0.00 | 0.00 | 39 | 1008.1 |
| 20260503150903 | 49 | 312 | 2.0 | 4.0 | 0.00 | 0.05 | 0.00 | 49 | 1009.5 |
| 20260503130902 | 44 | 291 | 0.0 | 1.0 | 0.00 | 0.05 | 0.00 | 67 | 1011.0 |
| 20260503080902 | 38 | 293 | 2.0 | 3.0 | 0.00 | 0.07 | 0.00 | 86 | 1011.0 |
| 20260503072724 | 38 | 311 | 2.0 | 3.0 | 0.00 | 0.07 | 0.00 | 87 | 1010.9 |
| 20260503071802 | 38 | 278 | 4.0 | 4.0 | 0.00 | 0.07 | 0.00 | 87 | 1010.8 |
| 20260503070923 | 38 | 284 | 0.0 | 0.0 | 0.00 | 0.07 | 0.00 | 87 | 1010.8 |